FW7134 Weather Reports


time (UTC)temp
F
wind
direction
speed
knots
gust
knots
rain 1hr
in
rain 24hr
in
rain mn
in
humidity
%
barometer
mb
20260505011532 51 244 13.0 26.1 0.00 0.46 0.04 100 1003.9
20260505010032 52 265 13.0 20.0 0.00 0.46 0.04 100 1004.0
20260505004540 52 234 15.6 28.7 0.00 0.56 0.04 100 1003.8
20260505003028 52 236 13.9 20.9 0.00 0.56 0.04 100 1003.6
20260505001527 52 247 11.3 21.7 0.00 0.56 0.04 100 1003.4
20260505000026 52 244 11.3 20.0 0.00 0.56 0.04 100 1003.3
20260504234530 52 244 8.7 21.7 0.00 0.65 0.04 100 1003.0
20260504233024 52 247 12.2 17.4 0.00 0.65 0.04 100 1002.8
20260504231536 51 242 9.6 14.8 0.00 0.65 0.04 100 1002.7
20260504230022 50 251 7.0 14.8 0.00 0.65 0.04 100 1002.5
20260504224522 50 268 8.7 16.5 0.00 0.68 0.04 100 1002.6
20260504223021 52 245 11.3 33.0 0.00 0.68 0.04 100 1002.5
20260504221519 54 242 13.0 24.3 0.00 0.68 0.04 58 1002.2
20260504220018 55 257 13.0 19.1 0.00 0.68 0.04 60 1002.0
20260504214519 56 238 13.0 27.8 0.00 0.69 0.04 60 1002.1
20260504213015 57 257 13.0 25.2 0.00 0.69 0.04 69 1002.0
20260504211514 57 243 13.9 25.2 0.00 0.69 0.04 72 1002.1
20260504210014 57 250 15.6 23.5 0.00 0.69 0.04 74 1001.8
20260504204507 57 269 13.9 20.9 0.00 0.69 0.04 70 1001.7
20260504203003 56 237 13.0 21.7 0.00 0.69 0.04 86 1001.3
20260504201602 56 243 13.0 20.9 0.00 0.69 0.04 86 1001.2
20260504200059 56 219 13.9 26.9 0.00 0.69 0.04 100 1000.8
20260504194556 55 253 15.6 27.8 0.00 0.69 0.04 100 1000.8
20260504193052 55 242 15.6 20.9 0.00 0.69 0.04 100 1000.6
20260504191547 55 244 11.3 21.7 0.00 0.69 0.04 100 1000.6
20260504190055 55 259 8.7 22.6 0.00 0.69 0.04 100 1000.4
20260504184558 54 254 10.4 21.7 0.00 0.69 0.04 100 1000.2
20260504183041 54 238 11.3 26.9 0.00 0.69 0.04 100 999.8
20260504181538 53 274 9.6 25.2 0.00 0.69 0.04 100 999.9
20260504180034 54 259 10.4 28.7 0.00 0.69 0.04 100 999.9
20260504174533 54 245 13.0 23.5 0.00 0.69 0.04 100 999.6
20260504173031 53 279 17.4 28.7 0.00 0.69 0.04 100 999.4
20260504171538 52 259 16.5 26.1 0.00 0.69 0.04 100 999.5
20260504044540 39 281 3.5 9.6 0.01 0.55 0.03 100 977.2
20260504043030 40 305 0.9 7.8 0.01 0.55 0.03 100 976.7
20260504041531 40 309 0.9 4.3 0.02 0.55 0.03 100 976.5
20260504040027 40 344 2.6 7.0 0.02 0.54 0.02 100 976.3
20260504034525 40 320 1.7 4.3 0.03 0.54 0.02 100 976.2
20260504033025 40 337 2.6 7.0 0.03 0.54 0.02 100 976.0
20260504031522 39 336 1.7 4.3 0.02 0.53 0.01 100 976.1
20260504030028 39 74 0.0 2.6 0.02 0.52 0.52 100 976.2
20260504024517 39 48 0.9 9.6 0.02 0.51 0.51 100 976.5
20260504023016 40 64 3.5 10.4 0.02 0.51 0.51 100 976.6
20260504021514 40 49 2.6 13.0 0.02 0.51 0.51 100 976.8
20260504020016 40 88 6.1 13.0 0.02 0.50 0.50 100 977.1
20260504014507 41 82 7.0 13.9 0.01 0.49 0.49 100 977.6
20260504013009 41 68 7.8 17.4 0.01 0.49 0.49 100 977.7